Location: Newark
(13.8117°N, 3.6025°W)
Time: 03:59:30
(UTC+00:00)

Explorer 11/Cluster Stage 4 - Pass Details

Date: 27 August 2019
Orbit: 467 x 1260 km, 28.8° (Epoch: 21 September)

Event Time Altitude Azimuth Distance (km) Brightness Sun altitude
Rises 06:56:37 0° 246° (WSW) 3,290 9.2 12.1°
Reaches altitude 10° 06:58:54 10° 247° (WSW) 2,474 8.6 12.7°
Maximum altitude 07:04:58 80° 334° (NNW) 1,011 7.4 14.1°
Drops below altitude 10° 07:12:29 10° 61° (ENE) 3,031 11.1 16.0°
Sets 07:15:32 0° 62° (ENE) 4,076 11.6 16.7°
